Location: Proctor
(47.8934°N, 114.3048°W)
Time: 14:05:45
(UTC+00:00)

AO-73 - Visible Passes

Search period start: 02 July 2022 00:00
Search period end: 12 July 2022 00:00
Orbit: 579 x 658 km, 97.6° (Epoch: 01 July)

Date Brightness Start Highest point End Pass type
(mag) Time Alt. Az. Time Alt. Az. Time Alt. Az.
02 Jul ? 10:45:31 10° NE 10:48:56 21° E 10:52:22 10° SE visible
03 Jul ? 11:01:52 10° NNE 11:05:50 30° E 11:09:49 10° SSE visible
06 Jul ? 10:18:05 10° ENE 10:19:32 11° E 10:20:58 10° ESE visible
07 Jul ? 10:33:35 10° NE 10:36:29 17° E 10:39:23 10° SE visible
08 Jul ? 10:49:44 10° NE 10:53:24 24° E 10:57:02 10° SE visible
09 Jul ? 11:06:08 10° NNE 11:10:16 33° E 11:14:23 10° SSE visible
